Total_Precipitation_Accumulation
0.15 0.17 0.21 0.29 0.32 0.35 0.37 0.37 0.38 0.42 0.48 0.49 0.45 0.44 0.47 0.56 0.66 0.74 0.75 0.77 0.82 0.82 0.83 0.85 0.83 0.83 0.86 0.85 0.86 0.86 0.91 1.09 1.10 0.52 0.35 0.41 0.54 0.58 0.58 0.55 0.54 0.57 0.59
0.17 0.19 0.20 0.26 0.34 0.38 0.42 0.45 0.47 0.50 0.53 0.56 0.56 0.54 0.49 0.51 0.60 0.68 0.73 0.76 0.81 0.83 0.86 0.90 0.91 0.91 0.94 0.94 0.98 0.98 0.95 0.99 1.10 0.81 0.48 0.46 0.53 0.60 0.65 0.65 0.58 0.58 0.59
0.19 0.21 0.23 0.27 0.35 0.42 0.48 0.51 0.52 0.56 0.61 0.63 0.65 0.66 0.62 0.62 0.67 0.71 0.75 0.78 0.79 0.79 0.81 0.88 0.93 1.00 1.03 1.01 1.02 1.02 0.97 0.91 0.94 0.94 0.65 0.51 0.55 0.61 0.68 0.71 0.70 0.69 0.65
0.26 0.27 0.32 0.39 0.43 0.48 0.53 0.55 0.55 0.58 0.63 0.69 0.71 0.73 0.75 0.80 0.93 0.96 0.87 0.86 0.81 0.78 0.78 0.83 0.90 1.01 1.10 1.18 1.25 1.16 1.08 1.12 1.13 1.12 0.92 0.72 0.66 0.66 0.82 0.86 0.84 0.79 0.75
0.40 0.42 0.42 0.43 0.47 0.47 0.49 0.52 0.55 0.59 0.62 0.65 0.65 0.69 0.75 0.89 1.19 1.23 1.05 0.95 0.89 0.83 0.79 0.79 0.83 1.00 1.23 1.44 1.57 1.51 1.48 1.53 1.47 1.43 1.25 1.02 0.86 0.86 0.94 0.93 0.97 0.87 0.85
0.49 0.51 0.50 0.45 0.45 0.49 0.50 0.50 0.53 0.58 0.59 0.59 0.59 0.61 0.71 0.90 1.31 1.35 1.14 0.92 0.89 0.89 0.87 0.80 0.78 0.86 0.99 1.17 1.40 1.48 1.58 1.71 1.78 1.72 1.58 1.35 1.03 0.92 0.98 1.14 1.27 1.28 1.13
0.51 0.55 0.56 0.49 0.45 0.48 0.50 0.49 0.48 0.49 0.51 0.52 0.53 0.54 0.56 0.74 1.17 1.26 1.11 0.86 0.77 0.78 0.78 0.73 0.73 0.73 0.79 0.77 0.91 1.01 1.10 1.29 1.54 1.72 1.80 1.46 1.18 1.06 1.24 1.47 1.51 1.48 1.24
0.51 0.50 0.50 0.45 0.39 0.41 0.47 0.46 0.42 0.42 0.46 0.47 0.48 0.47 0.44 0.51 0.89 1.16 1.05 0.75 0.69 0.70 0.70 0.72 0.73 0.70 0.70 0.79 0.87 0.91 0.85 0.88 1.10 1.36 1.51 1.37 1.27 1.28 1.50 1.79 1.93 1.98 1.63
0.41 0.39 0.39 0.37 0.36 0.40 0.45 0.42 0.38 0.37 0.39 0.41 0.43 0.46 0.44 0.44 0.69 1.09 1.12 0.77 0.74 0.69 0.70 0.82 0.87 0.78 0.82 1.01 1.14 1.11 0.91 0.78 0.86 1.18 1.46 1.50 1.55 1.74 1.98 2.36 2.63 2.71 2.39
0.32 0.32 0.37 0.34 0.32 0.36 0.43 0.41 0.39 0.37 0.39 0.41 0.44 0.51 0.51 0.45 0.60 1.01 1.28 0.90 0.81 0.71 0.72 0.84 1.10 1.07 1.06 1.14 1.21 1.24 1.18 0.89 0.80 0.86 0.96 1.07 1.12 1.20 1.58 1.95 2.24 2.52 2.47
0.25 0.28 0.35 0.37 0.34 0.34 0.37 0.39 0.39 0.39 0.40 0.42 0.44 0.49 0.52 0.48 0.52 0.82 1.30 1.19 0.97 0.86 0.85 0.90 1.04 1.13 1.13 1.16 1.23 1.21 1.25 1.18 1.13 1.11 1.05 0.98 1.01 1.13 1.30 1.57 1.83 2.12 2.36
0.21 0.23 0.29 0.37 0.35 0.34 0.36 0.36 0.36 0.40 0.43 0.45 0.46 0.49 0.50 0.52 0.55 0.71 1.07 1.29 1.21 1.01 0.94 0.85 0.94 1.07 1.13 1.17 1.13 1.14 1.22 1.27 1.21 1.18 1.11 1.03 1.00 1.06 1.13 1.27 1.53 1.70 1.86
0.18 0.22 0.27 0.33 0.33 0.32 0.34 0.35 0.36 0.38 0.45 0.50 0.52 0.54 0.53 0.55 0.60 0.74 0.87 0.99 1.12 1.04 1.01 1.15 1.12 1.09 1.04 0.99 0.98 1.04 1.06 1.03 1.08 1.07 0.96 0.86 0.81 0.86 0.97 1.14 1.32 1.50 1.64
0.19 0.24 0.29 0.33 0.35 0.34 0.33 0.34 0.36 0.42 0.57 0.67 0.66 0.65 0.60 0.59 0.68 0.88 0.94 0.90 0.98 1.02 1.01 1.10 1.10 0.99 0.89 0.85 0.87 0.88 0.88 0.94 1.05 1.05 0.92 0.81 0.77 0.84 0.95 1.06 1.23 1.38 1.62
0.23 0.27 0.32 0.36 0.37 0.37 0.35 0.36 0.41 0.45 0.69 0.96 0.93 0.91 0.92 0.90 0.98 1.28 1.30 1.20 1.20 1.22 1.23 1.21 1.10 0.96 0.88 0.80 0.76 0.73 0.74 0.85 0.97 0.96 0.96 0.95 0.90 0.92 0.96 0.99 1.17 1.33 1.53
0.27 0.30 0.34 0.40 0.42 0.42 0.41 0.41 0.43 0.47 0.57 0.65 0.72 0.85 0.87 1.01 1.16 1.16 1.14 1.14 1.18 1.22 1.25 1.18 0.98 0.87 0.82 0.78 0.77 0.76 0.74 0.77 0.80 0.87 0.93 0.95 0.98 1.00 1.00 1.01 1.16 1.34 1.41
0.32 0.34 0.38 0.41 0.43 0.45 0.47 0.48 0.48 0.45 0.46 0.51 0.56 0.64 0.78 0.95 1.01 1.01 1.05 1.01 1.01 1.03 1.04 0.92 0.83 0.81 0.79 0.76 0.77 0.77 0.74 0.70 0.75 0.86 0.93 0.97 1.01 1.05 1.06 1.07 1.12 1.23 1.28
0.35 0.38 0.42 0.44 0.46 0.47 0.49 0.50 0.50 0.50 0.50 0.50 0.50 0.55 0.65 0.77 0.86 0.91 0.97 0.94 0.90 0.83 0.82 0.83 0.80 0.78 0.77 0.76 0.76 0.77 0.75 0.73 0.77 0.83 0.87 0.91 0.96 1.05 1.07 1.02 1.03 1.15 1.24
0.32 0.35 0.39 0.43 0.46 0.47 0.50 0.52 0.52 0.51 0.52 0.52 0.53 0.56 0.62 0.67 0.73 0.81 0.83 0.79 0.79 0.75 0.73 0.75 0.74 0.77 0.79 0.77 0.75 0.75 0.77 0.79 0.76 0.78 0.81 0.82 0.87 0.98 1.00 0.93 0.96 1.07 1.26
0.31 0.38 0.43 0.45 0.47 0.48 0.51 0.53 0.55 0.56 0.56 0.55 0.58 0.63 0.71 0.77 0.78 0.77 0.73 0.72 0.74 0.74 0.71 0.75 0.72 0.73 0.78 0.79 0.78 0.77 0.78 0.77 0.75 0.75 0.76 0.77 0.81 0.92 0.97 0.92 0.98 1.09 1.17
0.34 0.38 0.44 0.45 0.46 0.49 0.53 0.58 0.60 0.63 0.65 0.62 0.59 0.63 0.92 1.05 0.92 0.77 0.73 0.75 0.80 0.83 0.80 0.78 0.72 0.68 0.70 0.74 0.78 0.77 0.77 0.73 0.70 0.75 0.78 0.78 0.82 0.90 0.90 0.95 0.99 1.04 1.13
0.40 0.44 0.46 0.48 0.48 0.51 0.57 0.60 0.61 0.64 0.64 0.62 0.58 0.58 0.67 0.70 0.70 0.69 0.70 0.74 0.80 0.85 0.86 0.87 0.80 0.69 0.69 0.78 0.83 0.85 0.79 0.70 0.67 0.75 0.83 0.81 0.83 0.88 0.92 0.97 0.99 1.06 1.13
0.46 0.49 0.49 0.48 0.49 0.56 0.56 0.53 0.57 0.61 0.62 0.60 0.58 0.58 0.59 0.63 0.66 0.70 0.73 0.76 0.81 0.85 0.84 0.83 0.81 0.70 0.63 0.69 0.77 0.88 0.91 0.80 0.76 0.88 1.00 0.97 0.92 0.92 0.95 0.99 0.99 1.05 1.08
0.52 0.54 0.54 0.52 0.52 0.54 0.54 0.54 0.55 0.57 0.60 0.61 0.59 0.60 0.62 0.64 0.65 0.69 0.73 0.76 0.80 0.82 0.81 0.80 0.77 0.70 0.65 0.67 0.71 0.73 0.79 0.88 1.07 1.22 1.19 1.18 1.08 0.97 0.97 1.00 0.97 0.97 1.02
0.53 0.54 0.56 0.57 0.58 0.59 0.59 0.56 0.55 0.57 0.60 0.61 0.61 0.61 0.61 0.62 0.64 0.67 0.71 0.75 0.79 0.80 0.76 0.75 0.74 0.70 0.66 0.64 0.64 0.67 0.77 0.94 1.18 1.50 1.70 1.63 1.34 1.08 1.04 1.03 0.99 0.97 1.02
0.52 0.50 0.52 0.55 0.58 0.62 0.65 0.65 0.62 0.62 0.66 0.64 0.63 0.65 0.67 0.69 0.69 0.71 0.74 0.80 0.86 0.83 0.78 0.75 0.70 0.66 0.65 0.64 0.63 0.68 0.82 1.03 1.25 1.52 1.92 2.08 1.69 1.27 1.11 1.13 1.05 1.04 1.08